Regional Weather Roundup
Issued by NWS

Home | Current Version | Previous Version | Graphics & Text | Print | Product List | Glossary On
Versions: 1 2 3 4 5 6 7 8 9 10 11 12 13 14 15 16 17 18 19 20 21 22 23 24 25 26 27
000
ASUS45 KBOU 011807
RWRCO

WEATHER ROUNDUP FOR COLORADO
NATIONAL WEATHER SERVICE DENVER/BOULDER CO
1100 AM MST THU DEC 01 2016

NOTE: "FAIR" INDICATES FEW OR NO CLOUDS BELOW 12000 FEET WITH NO
SIGNIFICANT WEATHER AND/OR OBSTRUCTIONS TO VISIBILITY.

COZ001>005-013-030-031-011900-
...NORTHWEST COLORADO...

CITY           SKY/WX    TMP DP  RH WIND       PRES   REMARKS
CRAIG          CLOUDY    28  15  58 E7        30.02S WCI  21
HAYDEN         FAIR      23  12  63 E6        29.99F WCI  16
MEEKER         CLOUDY    27  15  61 CALM      30.00F
MOUNT WERNER   NOT AVBL
STEAMBOAT SPGS CLOUDY    21  14  73 NW3       29.99F
WALDEN           N/A     23  10  58 S10G16    29.93F WCI  12
$$

COZ006>008-011-011900-
...WEST CENTRAL VALLEYS...

CITY           SKY/WX    TMP DP  RH WIND       PRES   REMARKS
GRAND JUNCTION PTSUNNY   34  14  43 SE6       30.04F WCI  29
MONTROSE       FAIR      30  12  47 CALM      30.04F
EAGLE          SUNNY     21  10  63 CALM      30.04F
RIFLE          CLOUDY    28  14  55 CALM      30.04F
DELTA          NOT AVBL
NUCLA          FAIR      30  14  51 N3        30.06F
$$

COZ017>023-064>068-011900-
...SOUTHWEST COLORADO...

CITY           SKY/WX    TMP DP  RH WIND       PRES   REMARKS
DURANGO        FAIR      29  14  53 VRB3      30.01F
CORTEZ         FAIR      32  14  47 MISG      30.03F
PAGOSA SPRINGS FAIR      26  11  52 CALM      29.99F
TELLURIDE      FAIR      26  12  55 CALM      29.95F
WOLF CREEK PAS FAIR      18  10  73 S5        29.97S WCI  11
$$

COZ009-010-012-014-032>034-037-058>063-011900-
...CENTRAL COLORADO...

CITY           SKY/WX    TMP DP  RH WIND       PRES   REMARKS
ASPEN          FAIR      25   8  48 CALM      29.95F
BUENA VISTA    FAIR      31   2  30 SE6       29.91F WCI  25
COPPER MTN     CLOUDY    14   9  79 MISG      29.88F
BERTHOUD PASS  CLOUDY     3  -9  55 N20G28    29.82R WCI -18
COTTONWOOD PAS FAIR      28   5  37 SE8       29.89F WCI  20
GUNNISON       FAIR      17   5  59 CALM      30.02F
KREMMLING      FAIR      27  14  59 CALM      30.01F
LEADVILLE      FAIR      20   4  50 CALM      29.88F
MONARCH PASS     N/A      9   5  85 SW21G26   29.98F WCI -11
SALIDA         FAIR      35   5  28 SW8       29.99F WCI  28
SUNLIGHT       LGT SNOW N/A N/A N/A S5        29.95S
WILKERSON PASS FAIR      19   3  49 W5        29.89F WCI  13
$$

COZ069>075-011900-
...SAN LUIS VALLEY/SANGRE DE CRISTO MOUNTAINS...

CITY           SKY/WX    TMP DP  RH WIND       PRES   REMARKS
ALAMOSA        FAIR      24   7  48 W3        29.99F
LA VETA PASS   FAIR      21   5  49 NE20G28   29.90F WCI   6
SAGUACHE       FAIR      25   7  46 SE5       29.98F WCI  19
$$

COZ035-036-038>040-011900-
...NORTHERN COLORADO FRONT RANGE...

CITY           SKY/WX    TMP DP  RH WIND       PRES   REMARKS
DENVER INTL AP PTSUNNY   35   5  28 W3        29.94F
DMNS CITY PARK   N/A     36   3  25 E6G12     29.94F
AURORA         PTSUNNY   35   3  26 CALM      29.94F
FRONT RANGE AP NOT AVBL
ERIE MUNI ARPT   N/A    N/A N/A N/A MISG        N/A
BOULDER MUN AP FAIR      32  10  40 CALM      29.95F
CENTENNIAL     PTSUNNY   36   5  27 VRB3      29.92F
BROOMFIELD     PTSUNNY   36   7  30 CALM      29.95S
FORT COLLINS   FAIR      32   9  37 CALM      29.96F
LONGMONT       PTSUNNY   34   9  34 CALM      29.97F
$$

COZ041-046-047-076>085-087-088-011900-
...PIKES PEAK/PALMER DIVIDE AND SOUTHERN FOOTHILLS...

CITY           SKY/WX    TMP DP  RH WIND       PRES   REMARKS
COLO. SPRINGS  FAIR      31   4  31 E6        29.95F WCI  25
A. F. ACADEMY  FAIR      29   3  32 S5        29.92F WCI  24
SCHRIEVER AFB  NOT AVBL
ELLICOTT         N/A      1   1 100 S5        29.94F WCI  -9
FALCON         FAIR      30   3  32 CALM      29.94F
FORT CARSON    FAIR      33   5  30 VRB1      29.94F
LIMON            N/A    N/A N/A N/A MISG      29.96F
MONUMENT HILL  PTSUNNY   32   5  32 S5        29.93F WCI  27
TRINIDAD       FAIR      36   6  28 E7        29.95F
$$

COZ042>045-048>051-090-091-011900-
...NORTHEAST COLORADO...

CITY           SKY/WX    TMP DP  RH WIND       PRES   REMARKS
GREELEY ARPT   FAIR      33  10  38 CALM      29.98F
AKRON          FAIR      37  10  32 SW13      29.96F
BURLINGTON     FAIR      39   6  25 S8        30.00F
WRAY           FAIR      43  12  28 W6        29.98
STERLING       PTSUNNY   36  14  41 SW10      29.97F
HOLYOKE        FAIR      45  10  24 W15G22    29.96F
FORT MORGAN    PTSUNNY   33  11  41 W6        29.98F WCI  27
$$

COZ086-089-092>099-011900-
...SOUTHEAST COLORADO...

CITY           SKY/WX    TMP DP  RH WIND       PRES   REMARKS
PUEBLO         FAIR      35  10  35 SW6       29.97F WCI  30
LA JUNTA       FAIR      34  13  41 SW6       30.00F WCI  29
LAMAR          FAIR      38  13  35 VRB3      30.00F
SPRINGFIELD      N/A     39   8  27 S10       29.99F
$$




USA.gov is the U.S. government's official web portal to all federal, state and local government web resources and services.